User: anonymous   Login
Location: Beaurecueil
(43.5122°N, 5.5450°E)
Time: 06:49:24
(UTC+00:00)
Language:

CSL-04 Debris - Orbit

View from above orbital plane
View from above orbital plane
View from above satellite
View from above satellite

Ground track
Ground track

The orbit data is extracted from the following two-line orbital elements,

1 25733U 99025D   20336.50643148 +.00000172 +00000-0 +10914-3 0  9998
2 25733 098.9332 005.4757 0014644 204.4595 155.5885 14.16407551113345
Epoch (UTC): 01 December 2020 12:09:15
Eccentricity: 0.0014644
inclination: 98.9332°
perigee height: 827 km
apogee height: 848 km
right ascension of ascending node: 5.4757°
argument of perigee: 204.4595°
revolutions per day: 14.16407551
mean anomaly at epoch: 155.5885°
orbit number at epoch: 11334

The dashed part of the orbit path shows where the satellite is in the earth's shadow,  

DLR